Fort Madison, IA

7:28 PM CDT on April 23, 2018 (GMT -0500)
Fort Madison Municipal

Weather History for KFSW - November, 2013

Change the Weather History Date:

Friday, November 15, 2013

  Actual Average Record
Temperature  
Mean Temperature 46 °F -  
Max Temperature 53 °F 49 °F 75 °F (1964)
Min Temperature 39 °F 32 °F 11 °F (1959)
Degree Days  
Heating Degree Days 19    
Moisture  
Dew Point 26 °F    
Average Humidity 47    
Maximum Humidity 70    
Minimum Humidity 38    
Precipitation  
Precipitation 0.00 in - - ()
Sea Level Pressure  
Sea Level Pressure 29.93 in    
Wind  
Wind Speed 9 mph (South)    
Max Wind Speed 13 mph    
Max Gust Speed 20 mph    
Visibility 10 miles    
Events      
Averages and records for this station are not official NWS values.
T = Trace of Precipitation, MM = Missing Value Source: NWS Daily Summary

Daily Weather History Graph

Daily Weather History Graph

Search for Another Location

Airport or City:

Astronomy

Nov. 15, 2013 Rise Set
Actual Time 6:52 AM CST 4:47 PM CST
Civil Twilight 6:22 AM CST 5:16 PM CST
Nautical Twilight 5:49 AM CST 5:49 PM CST
Astronomical Twilight 5:17 AM CST 6:21 PM CST
Moon 3:44 PM CST (11/15) 4:48 AM CST (11/15)
Length of Visible Light 10h 53m
Length of Day
9h 54m
Waxing Gibbous, 96% of the Moon is Illuminated
Nov 15
Waxing Gibbous
Nov 17
Full
Nov 25
Last Quarter
Dec 2
New
Dec 9
First Quarter

Hourly Weather History & Observations

Time (CST) Temp. Windchill Dew Point Humidity Pressure Visibility Wind Dir Wind Speed Gust Speed Precip Events Conditions
12:55 AM 41.0 °F 35.8 °F 17.6 °F 39% 29.96 in 10.0 mi SW 8.1 mph - N/A   Clear
1:15 AM 39.2 °F 34.2 °F 17.6 °F 42% 29.96 in 10.0 mi SSW 6.9 mph - N/A   Clear
1:35 AM 39.2 °F 34.2 °F 17.6 °F 42% 29.96 in 10.0 mi SSW 6.9 mph - N/A   Clear
1:55 AM 39.2 °F 34.2 °F 17.6 °F 42% 29.96 in 10.0 mi SSW 6.9 mph - N/A   Clear
2:15 AM 39.2 °F 33.6 °F 19.4 °F 45% 29.96 in 10.0 mi South 8.1 mph - N/A   Clear
2:35 AM 39.2 °F 33.6 °F 19.4 °F 45% 29.95 in 10.0 mi South 8.1 mph - N/A   Clear
2:55 AM 39.2 °F 33.6 °F 19.4 °F 45% 29.95 in 10.0 mi South 8.1 mph - N/A   Scattered Clouds
3:15 AM 39.2 °F 33.6 °F 19.4 °F 45% 29.95 in 10.0 mi South 8.1 mph - N/A   Mostly Cloudy
3:35 AM 39.2 °F 33.0 °F 19.4 °F 45% 29.95 in 10.0 mi South 9.2 mph - N/A   Scattered Clouds
3:55 AM 39.2 °F 33.0 °F 19.4 °F 45% 29.95 in 10.0 mi SSW 9.2 mph - N/A   Scattered Clouds
4:15 AM 39.2 °F 33.0 °F 19.4 °F 45% 29.95 in 10.0 mi South 9.2 mph - N/A   Scattered Clouds
4:35 AM 39.2 °F 33.6 °F 19.4 °F 45% 29.95 in 10.0 mi SSW 8.1 mph - N/A   Clear
4:55 AM 39.2 °F 33.6 °F 19.4 °F 45% 29.96 in 10.0 mi SSW 8.1 mph - N/A   Clear
5:15 AM 39.2 °F 33.0 °F 19.4 °F 45% 29.96 in 10.0 mi SSW 9.2 mph - N/A   Clear
5:35 AM 39.2 °F 33.0 °F 19.4 °F 45% 29.96 in 10.0 mi SSW 9.2 mph - N/A   Scattered Clouds
5:55 AM 39.2 °F 33.6 °F 19.4 °F 45% 29.96 in 10.0 mi SSW 8.1 mph - N/A   Mostly Cloudy
6:15 AM 41.0 °F 35.8 °F 19.4 °F 42% 29.97 in 10.0 mi SSW 8.1 mph - N/A   Overcast
6:35 AM 41.0 °F 35.8 °F 21.2 °F 45% 29.97 in 10.0 mi SSW 8.1 mph - N/A   Overcast
6:55 AM 41.0 °F 35.8 °F 21.2 °F 45% 29.97 in 10.0 mi SSW 8.1 mph - N/A   Overcast
7:15 AM 42.8 °F 38.6 °F 21.2 °F 42% 29.97 in 10.0 mi SSW 6.9 mph - N/A   Overcast
7:35 AM 42.8 °F 38.6 °F 23.0 °F 46% 29.98 in 10.0 mi SSW 6.9 mph - N/A   Overcast
7:55 AM 42.8 °F 38.0 °F 23.0 °F 46% 29.98 in 10.0 mi SSW 8.1 mph - N/A   Overcast
8:15 AM 42.8 °F 38.0 °F 23.0 °F 46% 29.98 in 10.0 mi SSW 8.1 mph - N/A   Overcast
8:35 AM 44.6 °F 39.7 °F 24.8 °F 46% 29.98 in 10.0 mi South 9.2 mph - N/A   Overcast
8:55 AM 44.6 °F 40.2 °F 24.8 °F 46% 29.98 in 10.0 mi SSW 8.1 mph - N/A   Overcast
9:15 AM 44.6 °F 40.7 °F 24.8 °F 46% 29.98 in 10.0 mi SSW 6.9 mph - N/A   Overcast
9:35 AM 46.4 °F 41.9 °F 24.8 °F 43% 29.98 in 10.0 mi SSW 9.2 mph - N/A   Overcast
9:55 AM 46.4 °F 41.5 °F 24.8 °F 43% 29.98 in 10.0 mi SSW 10.4 mph - N/A   Overcast
10:15 AM 46.4 °F 41.9 °F 26.6 °F 46% 29.98 in 10.0 mi SSW 9.2 mph - N/A   Overcast
10:35 AM 46.4 °F 41.9 °F 26.6 °F 46% 29.98 in 10.0 mi SSW 9.2 mph - N/A   Overcast
10:55 AM 48.2 °F - 26.6 °F 43% 29.97 in 10.0 mi SSW 12.7 mph - N/A   Overcast
11:15 AM 48.2 °F - 26.6 °F 43% 29.97 in 10.0 mi SSW 8.1 mph - N/A   Mostly Cloudy
11:35 AM 50.0 °F - 26.6 °F 40% 29.97 in 10.0 mi SSW 8.1 mph - N/A   Mostly Cloudy
11:55 AM 50.0 °F - 26.6 °F 40% 29.96 in 10.0 mi SSW 6.9 mph - N/A   Overcast
12:15 PM 50.0 °F - 26.6 °F 40% 29.96 in 10.0 mi South 6.9 mph - N/A   Overcast
12:35 PM 50.0 °F - 28.4 °F 43% 29.95 in 10.0 mi South 10.4 mph - N/A   Overcast
12:55 PM 51.8 °F - 28.4 °F 41% 29.94 in 10.0 mi South 6.9 mph - N/A   Overcast
1:15 PM 51.8 °F - 28.4 °F 41% 29.93 in 10.0 mi South 8.1 mph - N/A   Overcast
1:35 PM 51.8 °F - 28.4 °F 41% 29.92 in 10.0 mi South 10.4 mph - N/A   Overcast
1:55 PM 51.8 °F - 28.4 °F 41% 29.91 in 10.0 mi South 9.2 mph - N/A   Overcast
2:15 PM 51.8 °F - 28.4 °F 41% 29.90 in 10.0 mi South 12.7 mph - N/A   Mostly Cloudy
2:35 PM 51.8 °F - 28.4 °F 41% 29.90 in 10.0 mi South 10.4 mph - N/A   Clear
2:55 PM 51.8 °F - 28.4 °F 41% 29.91 in 10.0 mi South 9.2 mph - N/A   Scattered Clouds
3:15 PM 51.8 °F - 28.4 °F 41% 29.91 in 10.0 mi South 9.2 mph - N/A   Mostly Cloudy
3:35 PM 53.6 °F - 28.4 °F 38% 29.90 in 10.0 mi SSE 9.2 mph - N/A   Scattered Clouds
3:55 PM 51.8 °F - 28.4 °F 41% 29.90 in 10.0 mi SSE 6.9 mph - N/A   Clear
4:15 PM 51.8 °F - 30.2 °F 44% 29.90 in 10.0 mi South 6.9 mph - N/A   Clear
4:35 PM 50.0 °F - 30.2 °F 47% 29.90 in 10.0 mi SSE 5.8 mph - N/A   Clear
4:55 PM 48.2 °F - 30.2 °F 50% 29.90 in 10.0 mi SSE 4.6 mph - N/A   Scattered Clouds
5:15 PM 48.2 °F - 30.2 °F 50% 29.90 in 10.0 mi SE 5.8 mph - N/A   Scattered Clouds
5:35 PM 48.2 °F - 30.2 °F 50% 29.89 in 10.0 mi SE 8.1 mph - N/A   Mostly Cloudy
5:55 PM 48.2 °F - 30.2 °F 50% 29.89 in 10.0 mi SE 9.2 mph - N/A   Overcast
6:15 PM 48.2 °F - 30.2 °F 50% 29.89 in 10.0 mi SE 9.2 mph - N/A   Overcast
6:35 PM 48.2 °F - 30.2 °F 50% 29.88 in 10.0 mi SE 9.2 mph - N/A   Mostly Cloudy
6:55 PM 46.4 °F 42.4 °F 30.2 °F 53% 29.89 in 10.0 mi SE 8.1 mph - N/A   Scattered Clouds
7:15 PM 46.4 °F 41.5 °F 30.2 °F 53% 29.88 in 10.0 mi SSE 10.4 mph - N/A   Clear
7:35 PM 48.2 °F - 28.4 °F 46% 29.88 in 10.0 mi SSE 11.5 mph - N/A   Clear
7:55 PM 46.4 °F 41.1 °F 28.4 °F 50% 29.87 in 10.0 mi SE 11.5 mph - N/A   Clear
8:15 PM 46.4 °F 41.1 °F 28.4 °F 50% 29.87 in 10.0 mi SE 11.5 mph - N/A   Clear
8:35 PM 46.4 °F 41.1 °F 28.4 °F 50% 29.87 in 10.0 mi SSE 11.5 mph 17.3 mph N/A   Clear
8:55 PM 46.4 °F 41.5 °F 30.2 °F 53% 29.86 in 10.0 mi SSE 10.4 mph - N/A   Clear
9:15 PM 44.6 °F 39.2 °F 30.2 °F 57% 29.87 in 10.0 mi South 10.4 mph - N/A   Clear
9:35 PM 44.6 °F 38.8 °F 30.2 °F 57% 29.86 in 10.0 mi SSE 11.5 mph - N/A   Clear
9:55 PM 44.6 °F 38.8 °F 32.0 °F 61% 29.86 in 10.0 mi SSE 11.5 mph - N/A   Clear
10:15 PM 44.6 °F 38.4 °F 32.0 °F 61% 29.86 in 10.0 mi SSE 12.7 mph 17.3 mph N/A   Clear
10:35 PM 44.6 °F 38.8 °F 32.0 °F 61% 29.86 in 10.0 mi SSE 11.5 mph 19.6 mph N/A   Clear
10:55 PM 42.8 °F 36.6 °F 32.0 °F 66% 29.85 in 10.0 mi SSE 11.5 mph - N/A   Clear
11:15 PM 42.8 °F 37.0 °F 32.0 °F 66% 29.85 in 10.0 mi SSE 10.4 mph - N/A   Clear
11:35 PM 42.8 °F 37.0 °F 33.8 °F 70% 29.85 in 10.0 mi South 10.4 mph - N/A   Clear
11:55 PM 42.8 °F 36.6 °F 33.8 °F 70% 29.83 in 10.0 mi South 11.5 mph - N/A   Clear